This is the latest recevied weather packets stored in our database for station/object EW1958. If no packets are shown the sender has not sent any weather packets the latest 10 day(s).
| Time | Temp. | Humidity | Pressure | Rain* | Wind** | Luminosity | Snow |
|---|---|---|---|---|---|---|---|
| 1777764935 | 21.67° C | 63% | 1016.2 hPa | 0 mm | - | - | - |
| 1777764786 | 21.67° C | 62% | 1016.3 hPa | 0 mm | - | - | - |
| 1777764341 | 21.67° C | 60% | 1016.4 hPa | 0 mm | - | - | - |
| 1777763729 | 21.67° C | 61% | 1016.6 hPa | 0 mm | - | - | - |
| 1777763426 | 21.67° C | 60% | 1016.7 hPa | 0 mm | - | - | - |
| 1777763127 | 21.67° C | 60% | 1016.8 hPa | 0 mm | - | - | - |
| 1777762989 | 21.67° C | 60% | 1016.9 hPa | 0 mm | - | - | - |
| 1777762226 | 22.22° C | 59% | 1017 hPa | 0 mm | - | - | - |
| 1777761926 | 22.22° C | 62% | 1017.1 hPa | 0 mm | - | - | - |
| 1777761626 | 22.22° C | 61% | 1017.1 hPa | 0 mm | - | - | - |
| 1777761327 | 22.22° C | 61% | 1017.2 hPa | 0 mm | - | - | - |
| 1777761176 | 22.22° C | 61% | 1017.2 hPa | 0 mm | - | - | - |
| 1777760722 | 22.22° C | 60% | 1017.3 hPa | 0 mm | - | - | - |
| 1777760423 | 22.22° C | 60% | 1017.3 hPa | 0 mm | - | - | - |
| 1777760125 | 22.22° C | 61% | 1017.3 hPa | 0 mm | - | - | - |
| 1777759822 | 22.22° C | 63% | 1017.4 hPa | 0 mm | - | - | - |
| 1777759536 | 22.22° C | 62% | 1017.5 hPa | 0 mm | - | - | - |
| 1777759526 | 22.22° C | 62% | 1017.4 hPa | 0 mm | - | - | - |
| 1777758923 | 22.22° C | 62% | 1017.7 hPa | 0 mm | - | - | - |
| 1777758623 | 21.67° C | 62% | 1017.6 hPa | 0 mm | - | - | - |
| 1777758447 | 21.67° C | 62% | 1017.7 hPa | 0 mm | - | - | - |
| 1777758171 | 21.67° C | 62% | 1017.9 hPa | 0 mm | - | - | - |
| 1777757718 | 21.67° C | 63% | 1017.8 hPa | 0 mm | - | - | - |
| 1777757571 | 21.67° C | 63% | 1017.8 hPa | 0 mm | - | - | - |
| 1777757116 | 21.67° C | 63% | 1017.9 hPa | 0 mm | - | - | - |
* Rain latest hour (hover to see other rain measurements)
** Current wind speed in m/s (hover to see current wind gust speed)